Weather Roundup
Issued by NWS

Home | Current Version | Previous Version | Text Only | Print | Product List | Glossary On
Versions: 1 2 3 4 5 6 7 8 9 10 11 12 13 14 15 16 17 18 19 20 21 22 23 24 25 26 27 28 29 30 31 32 33 34 35 36 37 38 39 40 41 42 43 44 45 46 47 48 49 50
000
NZUS93 KARX 301010
HRRWXR

CURRENT HOURLY OBSERVATIONS ACROSS
MUCH OF THE UPPER MISSISSIPPI VALLEY
NATIONAL WEATHER SERVICE LA CROSSE WI
500 AM CDT SUN AUG 30 2015


...SOUTHEAST MINNESOTA...


CITY           SKY/WX    TMP DP  RH WIND       PRES   REMARKS
ROCHESTER      CLEAR     57  56  96 S6        30.04R FOG
ROCHESTER/MAYO FAIR      59  59 100 CALM      30.04R
WINONA         FOG       59  59 100 CALM      30.04R VSB 1/4
AUSTIN         CLOUDY    61  59  94 S3        30.04R
ALBERT LEA     CLOUDY    61  59  94 CALM      30.04R FOG
DODGE CENTER   FOG       61  59  94 S9        30.03S VSB 1
PRESTON        FOG       57  56  96 CALM      30.05S VSB 1/4
OWATONNA       CLOUDY    61  57  88 S5        30.02S FOG
FARIBAULT      CLOUDY    61  61 100 S7        30.02S FOG
$$

...ELSEWHERE IN MINNESOTA...


CITY           SKY/WX    TMP DP  RH WIND       PRES   REMARKS
MINNEAPOLIS    MOCLDY    63  61  93 S5        30.00S
INTNL FALLS    CLEAR     63  61  93 VRB7      29.84F
DULUTH         CLOUDY    63  61  93 SW14G22   29.95S FOG
RED WING       CLEAR     63  61  94 CALM      30.01R
REDWOOD FALLS  CLOUDY    63  61  93 S12       29.97S
MANKATO        MOCLDY    59  55  88 SW7       30.01S
WORTHINGTON    CLOUDY    61  57  88 SW12G17   30.01S
FAIRMONT       CLOUDY    63  55  77 S10       30.02S
$$

...SOUTHWEST WISCONSIN...


CITY           SKY/WX    TMP DP  RH WIND       PRES   REMARKS
LA CROSSE      PTCLDY    58  57  97 SE5       30.04R
PRAIRIE DU CHI FOG       59  58  96 CALM      30.04F VSB 1/4
BOSCOBEL       FOG       61  60  97 CALM      30.05S VSB 1/4
LONE ROCK      CLOUDY    64  62  93 CALM      30.06R
PLATTEVILLE    CLEAR     62  59  90 E5        30.06S
FORT MC COY    CLEAR     55  55  97 CALM      30.06R
CAMP DOUGLAS   FOG       55  55 100 CALM      30.05S VSB 1/4
VIROQUA        FAIR      58  58 100 SE3       30.06R
WIS DELLS      CLOUDY    60  59  95 CALM      30.06S
$$

...ELSEWHERE IN WISCONSIN...


CITY           SKY/WX    TMP DP  RH WIND       PRES   REMARKS
MILWAUKEE      FOG       63  62  97 CALM      30.04R VSB 1/4
MADISON        CLOUDY    63  61  93 CALM      30.05R FOG
GREEN BAY      FOG       58  57  97 CALM      30.05S VSB 1/4
EAU CLAIRE     CLEAR     58  55  90 CALM      30.02R
BLACK RVR FLS  FOG       51  51 100 CALM      30.04S VSB 1/2
MEDFORD        FOG       49  49 100 CALM      30.06R VSB<1/4
WAUSAU         FOG       52  51  97 CALM      30.04F VSB 1/2
WIS RAPIDS     PTCLDY    55  54  96 CALM      30.06S FOG
MARSHFIELD     FOG       55  52  89 CALM      30.05S VSB 3/4
RICE LAKE      CLOUDY    59  58  96 SE3       30.03S FOG
$$

...NORTHEAST IOWA...


CITY           SKY/WX    TMP DP  RH WIND       PRES   REMARKS
DECORAH        CLOUDY    59  57  94 CALM      30.05R
MASON CITY     FOG       54  54 100 S6        30.06R VSB 1/4
CHARLES CITY   FOG       57  57 100 S5        30.05S VSB 1/4
OELWEIN        FOG       55  55 100 SE5       30.05F VSB 1/4
$$

...ELSEWHERE IN IOWA...


CITY           SKY/WX    TMP DP  RH WIND       PRES   REMARKS
DES MOINES     FOG       61  59  93 CALM      30.03S VSB 1
IOWA CITY      FOG       64  64 100 CALM      30.05S VSB 1/4
FORT DODGE     CLOUDY    61  59  94 CALM      30.05S
$$

...NORTHERN ILLINOIS...


CITY           SKY/WX    TMP DP  RH WIND       PRES   REMARKS
CHICAGO-OHARE  CLOUDY    65  63  93 N5        30.03R FOG
CHICAGO-MIDWAY CLOUDY    67  63  87 N6        30.03R FOG
MOLINE         FOG       61  59  93 CALM      30.04R VSB 1/4
ROCKFORD       CLOUDY    66  62  87 NE3       30.06R FOG
PEORIA         PTCLDY    70  66  87 CALM      30.02S FOG
$$

NOTE: "FAIR" INDICATES FEW OR NO CLOUDS BELOW 12,000 FEET WITH NO
SIGNIFICANT WEATHER AND/OR OBSTRUCTIONS TO VISIBILITY. WIND
SPEEDS ARE IN MILES-PER-HOUR.



USA.gov is the U.S. government's official web portal to all federal, state and local government web resources and services.